Location: Bay Shore Mobile Home Park
(38.5762°N, 75.0841°W)
Time: 08:36:42
(UTC+00:00)

SMAP - Pass Details

Date: 15 November 2025
Orbit: 681 x 683 km, 98.1° (Epoch: 05 December)

Event Time Altitude Azimuth Distance (km) Brightness Sun altitude
Rises 22:52:39 0° 180° (S) 3,030 6.6 -13.0°
Reaches altitude 10° 22:54:57 10° 187° (S) 2,118 5.9 -13.4°
Maximum altitude 22:59:24 47° 261° (W) 906 4.2 -14.3°
Drops below altitude 10° 23:03:54 10° 335° (NNW) 2,132 5.8 -15.1°
Sets 23:06:14 0° 341° (NNW) 3,052 6.5 -15.6°
